• In Deutschland
  • Länderverzeichnis
  • Für 7 Tage
  • Wassertemperatur
  • Satellitenkarten
  • Wetterkarte
  • Widgets
  • user-avatar
    Anmelden

    Stündliche Wetter Naftalan

    Heute, 25 November, Samstag

    Zeit Temperatur Niederschläge Wind Luftdruck Luftfeuchtigkeit
    00:00 +4°C° 0 mm 6 m/S 768 mmHg 40%
    01:00 +3°C° 0 mm 5 m/S 768 mmHg 41%
    02:00 +3°C° 0 mm 5 m/S 768 mmHg 41%
    03:00 +3°C° 0 mm 6 m/S 767 mmHg 45%
    04:00 +3°C° 0 mm 6 m/S 768 mmHg 44%
    05:00 +2°C° 0 mm 7 m/S 768 mmHg 43%
    06:00 +2°C° 0 mm 7 m/S 769 mmHg 42%
    07:00 +2°C° 0 mm 8 m/S 770 mmHg 39%
    08:00 +4°C° 0 mm 8 m/S 770 mmHg 36%
    09:00 +6°C° 0 mm 9 m/S 771 mmHg 33%
    10:00 +7°C° 0 mm 9 m/S 771 mmHg 31%
    11:00 +8°C° 0 mm 9 m/S 771 mmHg 28%
    12:00 +10°C° 0 mm 9 m/S 772 mmHg 26%
    13:00 +10°C° 0 mm 9 m/S 772 mmHg 26%
    14:00 +10°C° 0 mm 8 m/S 773 mmHg 27%
    15:00 +10°C° 0 mm 8 m/S 773 mmHg 27%
    16:00 +9°C° 0 mm 7 m/S 774 mmHg 31%
    17:00 +8°C° 0 mm 6 m/S 774 mmHg 35%
    18:00 +7°C° 0 mm 5 m/S 775 mmHg 38%
    19:00 +6°C° 0 mm 5 m/S 775 mmHg 42%
    20:00 +6°C° 0 mm 4 m/S 775 mmHg 46%
    21:00 +6°C° 0 mm 4 m/S 776 mmHg 50%
    22:00 +5°C° 0 mm 3 m/S 776 mmHg 54%
    23:00 +5°C° 0 mm 3 m/S 775 mmHg 59%

    Morgen, 26 November, Sonntag

    Zeit Temperatur Niederschläge Wind Luftdruck Luftfeuchtigkeit
    00:00 +6°C° 0 mm 2 m/S 775 mmHg 63%
    01:00 +6°C° 0 mm 2 m/S 775 mmHg 66%
    02:00 +6°C° 0 mm 2 m/S 775 mmHg 70%
    03:00 +5°C° 0 mm 3 m/S 775 mmHg 73%
    04:00 +4°C° 0 mm 3 m/S 774 mmHg 73%
    05:00 +4°C° 0 mm 3 m/S 774 mmHg 73%
    06:00 +4°C° 0 mm 3 m/S 774 mmHg 72%
    07:00 +5°C° 0 mm 3 m/S 774 mmHg 68%
    08:00 +6°C° 0 mm 4 m/S 773 mmHg 64%
    09:00 +6°C° 0 mm 4 m/S 773 mmHg 60%
    10:00 +8°C° 0 mm 4 m/S 772 mmHg 55%
    11:00 +10°C° 0 mm 3 m/S 772 mmHg 51%
    12:00 +11°C° 0 mm 3 m/S 771 mmHg 46%
    13:00 +11°C° 0 mm 3 m/S 770 mmHg 45%
    14:00 +11°C° 0 mm 3 m/S 770 mmHg 44%
    15:00 +12°C° 0 mm 2 m/S 770 mmHg 43%
    16:00 +10°C° 0 mm 3 m/S 770 mmHg 41%
    17:00 +9°C° 0 mm 3 m/S 770 mmHg 40%
    18:00 +9°C° 0 mm 3 m/S 770 mmHg 38%
    19:00 +8°C° 0 mm 3 m/S 770 mmHg 38%
    20:00 +7°C° 0 mm 4 m/S 770 mmHg 38%
    21:00 +6°C° 0 mm 4 m/S 770 mmHg 38%
    22:00 +6°C° 0 mm 4 m/S 770 mmHg 38%
    23:00 +6°C° 0 mm 4 m/S 770 mmHg 39%

    übermorgen, 27 November, Montag

    Zeit Temperatur Niederschläge Wind Luftdruck Luftfeuchtigkeit
    00:00 +5°C° 0 mm 4 m/S 770 mmHg 40%
    01:00 +5°C° 0 mm 4 m/S 770 mmHg 40%
    02:00 +4°C° 0 mm 4 m/S 769 mmHg 40%
    03:00 +4°C° 0 mm 4 m/S 769 mmHg 40%
    04:00 +4°C° 0 mm 4 m/S 769 mmHg 40%
    05:00 +4°C° 0 mm 4 m/S 769 mmHg 39%
    06:00 +3°C° 0 mm 4 m/S 769 mmHg 39%
    07:00 +5°C° 0 mm 4 m/S 769 mmHg 38%
    08:00 +6°C° 0 mm 4 m/S 770 mmHg 37%
    09:00 +7°C° 0 mm 4 m/S 770 mmHg 35%
    10:00 +8°C° 0 mm 4 m/S 769 mmHg 35%
    11:00 +10°C° 0 mm 4 m/S 769 mmHg 34%
    12:00 +11°C° 0 mm 4 m/S 768 mmHg 34%
    13:00 +11°C° 0 mm 4 m/S 768 mmHg 35%
    14:00 +10°C° 0 mm 5 m/S 768 mmHg 36%
    15:00 +12°C° 0 mm 5 m/S 768 mmHg 37%
    16:00 +9°C° 0 mm 6 m/S 769 mmHg 46%
    17:00 +8°C° 0 mm 6 m/S 769 mmHg 55%
    18:00 +6°C° 0 mm 7 m/S 770 mmHg 65%
    19:00 +6°C° 0 mm 7 m/S 770 mmHg 69%
    20:00 +5°C° 0 mm 8 m/S 771 mmHg 72%
    21:00 +5°C° 0 mm 8 m/S 771 mmHg 76%
    22:00 +5°C° 0 mm 7 m/S 771 mmHg 76%
    23:00 +5°C° 0 mm 7 m/S 771 mmHg 77%

    28 November, Dienstag

    Zeit Temperatur Niederschläge Wind Luftdruck Luftfeuchtigkeit
    00:00 +4°C° 0 mm 6 m/S 772 mmHg 77%
    01:00 +4°C° 0 mm 6 m/S 772 mmHg 78%
    02:00 +5°C° 0 mm 5 m/S 771 mmHg 78%
    03:00 +5°C° 0 mm 4 m/S 771 mmHg 78%
    04:00 +5°C° 0 mm 4 m/S 772 mmHg 76%
    05:00 +5°C° 0 mm 4 m/S 772 mmHg 74%
    06:00 +5°C° 0 mm 4 m/S 772 mmHg 72%
    07:00 +6°C° 0 mm 5 m/S 772 mmHg 68%
    08:00 +7°C° 0 mm 5 m/S 772 mmHg 63%
    09:00 +7°C° 0 mm 5 m/S 773 mmHg 59%
    10:00 +8°C° 0 mm 5 m/S 772 mmHg 57%
    11:00 +8°C° 0 mm 4 m/S 772 mmHg 54%
    12:00 +10°C° 0 mm 4 m/S 772 mmHg 52%
    13:00 +10°C° 0 mm 4 m/S 772 mmHg 52%
    14:00 +11°C° 0 mm 4 m/S 771 mmHg 53%
    15:00 +11°C° 0 mm 4 m/S 771 mmHg 54%
    16:00 +11°C° 0 mm 4 m/S 772 mmHg 58%
    17:00 +10°C° 0 mm 4 m/S 772 mmHg 62%
    18:00 +10°C° 0 mm 4 m/S 772 mmHg 65%
    19:00 +10°C° 0,1 mm 4 m/S 772 mmHg 67%
    20:00 +10°C° 0,1 mm 4 m/S 772 mmHg 70%
    21:00 +10°C° 0,1 mm 4 m/S 773 mmHg 72%
    22:00 +10°C° 0 mm 4 m/S 772 mmHg 73%
    23:00 +10°C° 0 mm 4 m/S 772 mmHg 74%

    29 November, Mittwoch

    Zeit Temperatur Niederschläge Wind Luftdruck Luftfeuchtigkeit
    00:00 +10°C° 0 mm 4 m/S 772 mmHg 75%
    01:00 +10°C° 0,1 mm 4 m/S 772 mmHg 75%
    02:00 +10°C° 0,1 mm 3 m/S 772 mmHg 75%
    03:00 +10°C° 0,1 mm 3 m/S 772 mmHg 76%
    04:00 +9°C° 0,1 mm 3 m/S 772 mmHg 75%
    05:00 +8°C° 0,1 mm 4 m/S 772 mmHg 75%
    06:00 +8°C° 0,1 mm 4 m/S 772 mmHg 74%
    07:00 +8°C° 0,3 mm 4 m/S 772 mmHg 72%
    08:00 +10°C° 0,3 mm 4 m/S 772 mmHg 70%
    09:00 +10°C° 0,3 mm 4 m/S 772 mmHg 68%
    10:00 +10°C° 0,2 mm 4 m/S 772 mmHg 67%
    11:00 +11°C° 0,2 mm 4 m/S 771 mmHg 66%
    12:00 +12°C° 0,2 mm 4 m/S 770 mmHg 65%
    13:00 +12°C° 0,1 mm 4 m/S 770 mmHg 65%
    14:00 +12°C° 0,1 mm 3 m/S 770 mmHg 66%
    15:00 +12°C° 0,1 mm 3 m/S 770 mmHg 66%
    16:00 +12°C° 0,1 mm 3 m/S 770 mmHg 69%
    17:00 +11°C° 0,1 mm 3 m/S 770 mmHg 72%
    18:00 +10°C° 0,1 mm 3 m/S 770 mmHg 75%
    19:00 +10°C° 0,1 mm 4 m/S 769 mmHg 73%
    20:00 +10°C° 0,1 mm 4 m/S 769 mmHg 72%
    21:00 +10°C° 0,1 mm 4 m/S 769 mmHg 70%
    22:00 +8°C° 0,1 mm 4 m/S 769 mmHg 69%
    23:00 +8°C° 0,1 mm 4 m/S 768 mmHg 68%

    30 November, Donnerstag

    Zeit Temperatur Niederschläge Wind Luftdruck Luftfeuchtigkeit
    00:00 +8°C° 0,1 mm 4 m/S 768 mmHg 67%
    01:00 +8°C° 0 mm 4 m/S 768 mmHg 68%
    02:00 +8°C° 0 mm 3 m/S 768 mmHg 68%
    03:00 +8°C° 0 mm 3 m/S 768 mmHg 68%
    04:00 +7°C° 0 mm 4 m/S 768 mmHg 68%
    05:00 +7°C° 0 mm 4 m/S 768 mmHg 68%
    06:00 +7°C° 0 mm 4 m/S 768 mmHg 68%
    07:00 +7°C° 0 mm 4 m/S 768 mmHg 65%
    08:00 +8°C° 0 mm 4 m/S 768 mmHg 61%
    09:00 +10°C° 0 mm 4 m/S 769 mmHg 58%
    10:00 +11°C° 0 mm 4 m/S 769 mmHg 53%
    11:00 +12°C° 0 mm 4 m/S 768 mmHg 48%
    12:00 +13°C° 0 mm 4 m/S 768 mmHg 43%
    13:00 +13°C° 0 mm 4 m/S 768 mmHg 43%
    14:00 +13°C° 0 mm 4 m/S 769 mmHg 43%
    15:00 +13°C° 0 mm 4 m/S 769 mmHg 42%
    16:00 +12°C° 0 mm 4 m/S 769 mmHg 45%
    17:00 +12°C° 0 mm 3 m/S 770 mmHg 47%
    18:00 +11°C° 0 mm 3 m/S 771 mmHg 49%
    19:00 +11°C° 0,1 mm 3 m/S 771 mmHg 50%
    20:00 +11°C° 0,1 mm 3 m/S 771 mmHg 51%
    21:00 +11°C° 0,1 mm 4 m/S 772 mmHg 52%
    22:00 +11°C° 0,1 mm 4 m/S 772 mmHg 58%
    23:00 +9°C° 0,1 mm 5 m/S 772 mmHg 65%
    Mehr zeigen